Location: Bonnesvalyn
(49.1218°N, 3.3177°E)
Time: 20:26:28
(UTC+00:00)

FENGYUN 1C DEB - Visible Passes

Search period start: 26 February 2024 00:00
Search period end: 07 March 2024 00:00
Orbit: 850 x 941 km, 98.8° (Epoch: 25 February)

Date Brightness Start Highest point End Pass type
(mag) Time Alt. Az. Time Alt. Az. Time Alt. Az.
26 Feb ? 03:58:28 10° ENE 04:00:06 11° E 04:01:43 10° E visible
26 Feb ? 05:36:58 10° NNE 05:42:53 66° ESE 05:48:40 10° S visible
27 Feb ? 03:59:38 10° ENE 04:01:28 11° E 04:03:17 10° E visible
27 Feb ? 05:38:18 10° NNE 05:44:14 67° ESE 05:50:00 10° S visible
28 Feb ? 04:00:48 10° ENE 04:02:50 12° E 04:04:50 10° ESE visible
28 Feb ? 05:39:39 10° NNE 05:45:35 69° ESE 05:51:21 10° S visible
29 Feb ? 04:02:00 10° ENE 04:04:12 12° E 04:06:22 10° ESE visible
29 Feb ? 05:40:59 10° NNE 05:46:55 71° ESE 05:52:41 10° S visible
01 Mar ? 04:03:12 10° ENE 04:05:34 12° E 04:07:52 10° ESE visible
01 Mar ? 05:42:20 10° NNE 05:48:15 72° ESE 05:54:01 10° S visible
02 Mar ? 04:04:26 10° ENE 04:06:55 13° E 04:09:22 10° ESE visible
02 Mar ? 05:43:40 10° NNE 05:49:35 74° ESE 05:55:20 10° S visible
03 Mar ? 04:05:39 10° ENE 04:08:16 13° E 04:10:51 10° ESE visible
03 Mar ? 05:45:00 10° NNE 05:50:55 76° ESE 05:56:40 10° S visible
04 Mar ? 04:06:53 10° NE 04:09:37 13° E 04:12:20 10° ESE visible
04 Mar ? 05:46:20 10° NNE 05:52:15 77° ESE 05:57:59 10° S visible
05 Mar ? 04:08:07 10° NE 04:10:58 14° E 04:13:47 10° ESE visible
06 Mar ? 04:09:21 10° NE 04:12:18 14° E 04:15:14 10° ESE visible
